[Date Prev][Date Next][Thread Prev][Thread Next] - [Date Index][Thread Index][Author Index]
2 Line ISS Keps 12-31
- Subject: [sarex] 2 Line ISS Keps 12-31
- From: "Dave Larsen PhD" <doc@xxxxxxxxxxx>
- Date: Fri, 30 Dec 2005 19:02:31 -0800
ISS
1 25544U 98067A 05365.01767817 .00022487 00000-0 16075-3 0 587
2 25544 051.6446 332.0525 0010898 098.9779 335.6713 15.73594117406666
----
Via the sarex mailing list at AMSAT.ORG courtesy of AMSAT-NA.
To unsubscribe, send "unsubscribe sarex" to Majordomo@amsat.org
AMSAT Home